Regional Weather Roundup
Issued by NWS Sterling, VA

Home | Current Version | Previous Version | Graphics & Text | Print | Product List | Glossary On
Versions: 1 2 3 4 5 6 7 8 9 10 11 12 13 14 15 16 17 18 19 20 21 22 23 24 25 26 27
000
ASUS41 KLWX 270111
RWRLWX

REGIONAL WEATHER ROUNDUP
NATIONAL WEATHER SERVICE BALTIMORE MD/WASHINGTON DC
900 PM EDT FRI MAY 26 2017

Note: "FAIR" indicates few or no clouds below 12,000 feet
with no significant weather and/or obstructions to visibility.
 TC=TEMPERATURE CELSIUS

 * =Non NWS site. Station does not report precipitation (e.g. rain,
    snow, etc.), thunder, or fog.

DCZ001-MDZ009-015-VAZ040>042-051-053>054-270200-
WASHINGTON METRO

CITY           SKY/WX    TMP DP  RH WIND       PRES   REMARKS
WASHINGTON NAT PTCLDY    70  55  59 N10       29.88R
DULLES         PTCLDY    69  53  56 N6        29.87R
ANDREWS AFB    CLEAR     67  54  62 NW5       29.87R
FT BELVOIR     MOCLDY    65  58  76 CALM      29.87R
QUANTICO       CLEAR     67  60  78 NW5       29.88R
COLLEGE PARK*  PTCLDY    67  53  61 NW3       29.87R
LEESBURG*      CLEAR     68  59  73 N3        29.88S
MANASSAS*      CLOUDY    66  57  72 W3        29.88R
GAITHERSBURG*  CLEAR     65  53  65 NW6       29.89R

$$

MDZ006>007-011-014-270200-
BALTIMORE METRO

CITY           SKY/WX    TMP DP  RH WIND       PRES   REMARKS
BWI AIRPORT    PTCLDY    67  55  65 W8        29.85R
MD SCIENCE CTR   N/A     71  54  54 MISG      29.84R
MARTIN STATE   PTCLDY    70  55  60 W16       29.86R
ANNAPOLIS      CLOUDY    71  55  56 W9        29.86R
FORT MEADE*    CLEAR     64  54  68 NW5       29.88S

$$

MDZ012-015-019>023-270200-
MARYLAND EASTERN SHORE

CITY           SKY/WX    TMP DP  RH WIND       PRES   REMARKS
OCEAN CITY     CLOUDY    70  55  59 NW8       29.85R
SALISBURY      CLOUDY    72  54  53 W9        29.85R
BAY BRIDGE AP* PTCLDY    70  55  60 NW9       29.85R
CAMBRIDGE*     MOCLDY    72  55  56 NW8       29.86R
EASTON*        MOCLDY    72  54  53 NW9       29.89R

$$

MDZ017>025-270200-
SOUTHERN MARYLAND

CITY           SKY/WX    TMP DP  RH WIND       PRES   REMARKS
PATUXENT RIVER MOCLDY    70  61  73 NW6       29.86R
ST INIGOES     CLOUDY    69  62  78 CALM      29.85R
LEONARDTOWN*   MOCLDY    64  57  77 CALM      29.88R

$$

MDZ003>005-270200-
NORTH CENTRAL MARYLAND

CITY           SKY/WX    TMP DP  RH WIND       PRES   REMARKS
FREDERICK*     NOT AVBL
HAGERSTOWN APT CLEAR     65  53  65 NW10      29.88R
WESTMINSTER*   PTCLDY    66  55  68 NW6       29.88R

$$

MDZ501>502-270200-
WESTERN MARYLAND

CITY           SKY/WX    TMP DP  RH WIND       PRES   REMARKS
OAKLAND*         N/A     55  52  88 W8        29.95S
CUMBERLAND*    PTCLDY    68  54  60 CALM      29.92S

$$

VAZ025>031-270200-
SHENANDOAH VALLEY

CITY           SKY/WX    TMP DP  RH WIND       PRES   REMARKS
WINCHESTER*    MOCLDY    63  54  72 CALM      29.88S
FRONT ROYAL*   PTCLDY    66  54  63 CALM      29.88S
LURAY*         CLEAR     68  52  56 S3        29.89S
NEW MARKET*    CLEAR     62  55  77 CALM      29.89S
STAUNTON*      CLEAR     66  52  61 NW3       29.93S
WAYNESBORO*    CLEAR     67  54  62 CALM      29.92S

$$

WVZ021-048>050-054>055-270200-
EASTERN WEST VIRGINIA PANHANDLE

CITY           SKY/WX    TMP DP  RH WIND       PRES   REMARKS
MARTINSBURG    CLOUDY    65  53  65 N5        29.87S
PETERSBURG*    MOCLDY    66  57  71 CALM      29.91S

$$

VAZ036>039-050-270200-
CENTRAL FOOTHILLS

CITY           SKY/WX    TMP DP  RH WIND       PRES   REMARKS
CHARLOTTESVILL CLEAR     72  52  49 W5        29.88R
CULPEPER*      CLEAR     64  59  83 CALM      29.88S
ORANGE*        CLEAR     64  54  68 CALM      29.88R
GORDONSVILLE*  CLEAR     64  58  80 CALM      29.88R
WARRENTON*     PTCLDY    62  55  77 CALM      29.87R

$$

VAZ055>057-270200-
NORTH AND CENTRAL PIEDMONT

CITY           SKY/WX    TMP DP  RH WIND       PRES   REMARKS
FREDERICKSBRG* CLEAR     67  60  78 CALM      29.86R
STAFFORD*      CLEAR     63  60  91 CALM      29.91R

$$

NCZ024-NYZ072-PAZ021-071-VAZ022-071-270200-
OTHER REGIONAL OBSERVATIONS

CITY           SKY/WX    TMP DP  RH WIND       PRES   REMARKS
NEW YORK CITY  PTCLDY    70  52  52 VRB3      29.76R
PHILADELPHIA   CLOUDY    71  52  50 W14       29.80R
PITTSBURGH     PTCLDY    63  54  72 N5        29.90S
ROANOKE        PTCLDY    69  53  56 NW9       29.94S
RICHMOND       PTCLDY    69  57  65 CALM      29.87R
RALEIGH        PTCLDY    72  56  57 W3        29.92R

$$

ANZ530>537-270200-
MARINE OBSERVATIONS

STATION/POSITION TIME  TEMP    WIND        PRES
                       AIR SEA DIR/SP/G
                 (UTC) (F)     (DEG/KT/KT) (MB)
THOMAS PT LIGHT  0100   71 65  300/ 12/ 13   N/A
BALT KEY BRIDGE  0042   70     300/ 11/ 13 1010.4R
COVE POINT       0042   71     340/  6/  7 1011.5R
LEWISETTA        0042   73 69  320/  2/  3 1011.0R
SOLOMONS ISLAND  0042   71 67  350/  2/  3   N/A
PINEY POINT      0042          310/  7/  8   N/A

$$





USA.gov is the U.S. government's official web portal to all federal, state and local government web resources and services.